Tracking 17857 objects as of 1-October-2016
HD Live streaming from Space Station
objects crossing your sky now

SL-14 R/B

Track SL-14 R/B now!
10-day predictions


NORAD ID: 15370
Int'l Code: 1984-111B
Perigee: 610.7 km
Apogee: 639.7 km
Inclination: 82.5 °
Period: 97.1 minutes
Semi major axis: 6996 km
RCS: 4.088 m2 (large)
Launch date: October 18, 1984
Source: Commonwealth of Independent States (former USSR) (CIS)
Launch site: PLESETSK MISSILE AND SPACE COMPLEX (PKMTR)

Note: This is a ROCKET BODY
Your satellite tracking list
Your tracking list is empty





NASA's NSSDC Master Catalog

Two Line Element Set (TLE):
1 15370U 84111B   16274.45575468  .00000144  00000-0  14457-4 0  9999
2 15370  82.5147 250.9591 0020717 186.6080 173.4866 14.83567274725660
Source of the keplerian elements: AFSPC

N2YO: 716